TimePDT,TemperatureF,Dew PointF,Humidity,Sea Level PressureIn,VisibilityMPH,Wind Direction,Wind SpeedMPH,Gust SpeedMPH,PrecipitationIn,Events,Conditions,WindDirDegrees,DateUTC
12:54 AM,59.0,59.0,100,29.96,5.0,Calm,Calm,-,N/A,,Clear,0,2012-09-16 07:54:00
1:50 AM,59.0,59.0,100,29.96,1.0,Calm,Calm,-,N/A,,Clear,0,2012-09-16 08:50:00
1:54 AM,57.9,57.9,100,29.96,0.8,Calm,Calm,-,N/A,,Clear,0,2012-09-16 08:54:00
2:00 AM,57.2,57.2,100,29.96,2.5,Calm,Calm,-,N/A,,Clear,0,2012-09-16 09:00:00
2:07 AM,57.2,57.2,100,29.96,6.0,Calm,Calm,-,N/A,,Clear,0,2012-09-16 09:07:00
2:35 AM,60.8,60.8,100,29.95,1.8,Calm,Calm,-,N/A,,Clear,0,2012-09-16 09:35:00
2:38 AM,59.0,59.0,100,29.95,0.8,Calm,Calm,-,N/A,,Mist,0,2012-09-16 09:38:00
2:48 AM,57.2,57.2,100,29.95,1.2,Calm,Calm,-,N/A,,Partly Cloudy,0,2012-09-16 09:48:00
2:54 AM,57.0,57.0,100,29.96,1.5,Calm,Calm,-,N/A,,Partly Cloudy,0,2012-09-16 09:54:00
3:02 AM,57.2,57.2,100,29.95,0.8,Calm,Calm,-,N/A,,Mist,0,2012-09-16 10:02:00
3:06 AM,57.2,57.2,100,29.95,1.2,Calm,Calm,-,N/A,,Clear,0,2012-09-16 10:06:00
3:15 AM,57.2,57.2,100,29.95,0.8,Calm,Calm,-,N/A,,Clear,0,2012-09-16 10:15:00
3:22 AM,57.2,57.2,100,29.95,1.2,Calm,Calm,-,N/A,,Clear,0,2012-09-16 10:22:00
3:26 AM,57.2,57.2,100,29.95,3.0,Calm,Calm,-,N/A,,Clear,0,2012-09-16 10:26:00
3:51 AM,57.2,57.2,100,29.95,2.0,Calm,Calm,-,N/A,,Partly Cloudy,0,2012-09-16 10:51:00
3:54 AM,57.0,57.0,100,29.96,0.8,Calm,Calm,-,N/A,,Mist,0,2012-09-16 10:54:00
4:01 AM,57.2,57.2,100,29.95,0.5,Calm,Calm,-,N/A,Fog,Fog,0,2012-09-16 11:01:00
4:24 AM,55.4,55.4,100,29.95,0.2,West,3.5,-,N/A,Fog,Fog,280,2012-09-16 11:24:00
4:31 AM,57.2,57.2,100,29.95,0.8,Calm,Calm,-,N/A,,Clear,0,2012-09-16 11:31:00
4:34 AM,57.2,57.2,100,29.95,1.2,Calm,Calm,-,N/A,,Clear,0,2012-09-16 11:34:00
4:39 AM,57.2,57.2,100,29.95,3.0,Calm,Calm,-,N/A,,Clear,0,2012-09-16 11:39:00
4:54 AM,55.9,55.9,100,29.96,3.0,Calm,Calm,-,N/A,,Clear,0,2012-09-16 11:54:00
5:01 AM,55.4,55.4,100,29.95,1.5,Calm,Calm,-,N/A,,Clear,0,2012-09-16 12:01:00
5:21 AM,57.2,57.2,100,29.95,0.5,Calm,Calm,-,N/A,Fog,Fog,0,2012-09-16 12:21:00
5:29 AM,55.4,55.4,100,29.96,0.2,Calm,Calm,-,N/A,Fog,Fog,0,2012-09-16 12:29:00
5:40 AM,57.2,57.2,100,29.95,0.8,Calm,Calm,-,N/A,,Mist,0,2012-09-16 12:40:00
5:42 AM,57.2,57.2,100,29.95,1.5,Calm,Calm,-,N/A,,Partly Cloudy,0,2012-09-16 12:42:00
5:49 AM,57.2,57.2,100,29.96,2.5,Calm,Calm,-,N/A,,Partly Cloudy,0,2012-09-16 12:49:00
5:54 AM,57.0,57.0,100,29.96,3.0,NNE,3.5,-,N/A,,Clear,20,2012-09-16 12:54:00
6:54 AM,55.9,55.8,99,29.98,6.0,Calm,Calm,-,N/A,,Clear,0,2012-09-16 13:54:00
7:54 AM,62.1,61.9,99,29.99,3.0,Calm,Calm,-,N/A,,Clear,0,2012-09-16 14:54:00
8:19 AM,64.4,64.4,100,29.99,5.0,Calm,Calm,-,N/A,,Scattered Clouds,0,2012-09-16 15:19:00
8:54 AM,68.0,64.0,87,30.01,5.0,South,4.6,-,N/A,,Clear,180,2012-09-16 15:54:00
9:54 AM,69.1,66.0,90,30.02,10.0,South,11.5,-,N/A,,Clear,170,2012-09-16 16:54:00
10:13 AM,69.8,66.2,88,30.02,7.0,South,12.7,-,N/A,,Scattered Clouds,180,2012-09-16 17:13:00
10:21 AM,69.8,66.2,88,30.02,2.0,South,16.1,-,N/A,,Overcast,180,2012-09-16 17:21:00
10:54 AM,69.1,66.9,93,30.03,1.0,South,16.1,-,N/A,,Overcast,170,2012-09-16 17:54:00
11:32 AM,71.6,68.0,88,30.01,1.5,SSE,21.9,-,N/A,,Mostly Cloudy,150,2012-09-16 18:32:00
11:41 AM,73.4,68.0,83,30.01,2.5,SSE,24.2,29.9,N/A,,Haze,150,2012-09-16 18:41:00
11:51 AM,73.4,68.0,83,30.01,3.0,SE,25.3,-,N/A,,Haze,140,2012-09-16 18:51:00
11:54 AM,73.0,68.0,84,30.01,3.0,SE,21.9,31.1,N/A,,Haze,140,2012-09-16 18:54:00
12:54 PM,73.9,66.9,79,30.01,7.0,SSE,18.4,25.3,N/A,,Clear,160,2012-09-16 19:54:00
1:54 PM,73.9,68.0,82,30.00,7.0,South,13.8,-,N/A,,Partly Cloudy,170,2012-09-16 20:54:00
2:42 PM,75.2,69.8,83,29.98,7.0,South,15.0,-,N/A,,Partly Cloudy,190,2012-09-16 21:42:00
2:54 PM,73.9,69.1,85,29.98,7.0,South,12.7,-,N/A,,Partly Cloudy,190,2012-09-16 21:54:00
3:26 PM,73.4,68.0,83,29.97,7.0,WSW,8.1,-,N/A,,Mostly Cloudy,240,2012-09-16 22:26:00
3:54 PM,72.0,68.0,87,29.97,7.0,WSW,5.8,-,N/A,,Mostly Cloudy,250,2012-09-16 22:54:00
4:36 PM,71.6,68.0,88,29.96,7.0,SW,6.9,-,N/A,,Scattered Clouds,230,2012-09-16 23:36:00
4:54 PM,71.1,68.0,90,29.97,7.0,WSW,6.9,-,N/A,,Mostly Cloudy,240,2012-09-16 23:54:00
5:22 PM,71.6,68.0,88,29.95,7.0,WSW,8.1,-,N/A,,Scattered Clouds,250,2012-09-17 00:22:00
5:54 PM,69.1,66.9,93,29.96,7.0,West,8.1,-,N/A,,Scattered Clouds,260,2012-09-17 00:54:00
6:54 PM,64.0,64.0,100,29.97,5.0,West,8.1,-,N/A,,Mostly Cloudy,280,2012-09-17 01:54:00
7:03 PM,64.4,64.4,100,29.96,0.5,WNW,6.9,-,N/A,Fog,Fog,290,2012-09-17 02:03:00
7:22 PM,64.4,64.4,100,29.96,0.5,NW,3.5,-,N/A,Fog,Fog,310,2012-09-17 02:22:00
7:54 PM,64.0,64.0,100,29.98,0.5,WNW,3.5,-,N/A,Fog,Fog,290,2012-09-17 02:54:00
8:11 PM,62.6,62.6,100,29.98,4.0,NW,3.5,-,N/A,,Scattered Clouds,310,2012-09-17 03:11:00
8:54 PM,63.0,63.0,100,29.99,5.0,Calm,Calm,-,N/A,,Scattered Clouds,0,2012-09-17 03:54:00
9:54 PM,62.1,62.1,100,30.00,5.0,WNW,4.6,-,N/A,,Scattered Clouds,300,2012-09-17 04:54:00
10:54 PM,63.0,63.0,100,30.00,6.0,Calm,Calm,-,N/A,,Scattered Clouds,0,2012-09-17 05:54:00
11:54 PM,62.1,62.1,100,30.01,5.0,Calm,Calm,-,N/A,,Scattered Clouds,0,2012-09-17 06:54:00